This is the latest recevied weather packets stored in our database for station/object KD8FRE. If no packets are shown the sender has not sent any weather packets the latest 10 day(s).
| Time | Temp. | Humidity | Pressure | Rain* | Wind** | Luminosity | Snow |
|---|---|---|---|---|---|---|---|
| 1778113403 | 10.56° C | 46% | 1013 hPa | 0 mm | - | 5 W/m² | - |
| 1778113101 | 10.56° C | 47% | 1012.9 hPa | 0 mm | - | 7 W/m² | - |
| 1778112798 | 10.56° C | 45% | 1012.8 hPa | 0 mm | - | 6 W/m² | - |
| 1778112494 | 10.56° C | 44% | 1013 hPa | 0 mm | - | 6 W/m² | - |
| 1778112189 | 10.56° C | 45% | 1013.1 hPa | 0 mm | - | 7 W/m² | - |
| 1778111886 | 10.56° C | 45% | 1012.9 hPa | 0 mm | - | 7 W/m² | - |
| 1778111583 | 10.56° C | 44% | 1012.9 hPa | 0 mm | - | 9 W/m² | - |
| 1778111279 | 10.56° C | 45% | 1012.8 hPa | 0 mm | - | 10 W/m² | - |
| 1778110976 | 10.56° C | 43% | 1012.7 hPa | 0 mm | - | 11 W/m² | - |
| 1778110674 | 10.56° C | 43% | 1012.8 hPa | 0 mm | - | 17 W/m² | - |
| 1778110370 | 10.56° C | 44% | 1012.8 hPa | 0 mm | - | 13 W/m² | - |
| 1778110068 | 10.56° C | 43% | 1012.7 hPa | 0 mm | - | 23 W/m² | - |
| 1778109768 | 10.56° C | 44% | 1012.7 hPa | 0 mm | - | 30 W/m² | - |
| 1778109465 | 10.56° C | 43% | 1012.8 hPa | 0 mm | - | 29 W/m² | - |
| 1778109164 | 10.56° C | 46% | 1012.7 hPa | 0 mm | - | 33 W/m² | - |
| 1778108860 | 10.56° C | 44% | 1012.7 hPa | 0 mm | - | 38 W/m² | - |
| 1778108557 | 10.56° C | 44% | 1012.8 hPa | 0 mm | - | 39 W/m² | - |
| 1778108253 | 10.56° C | 46% | 1012.7 hPa | 0 mm | - | 43 W/m² | - |
| 1778107951 | 10.56° C | 44% | 1012.7 hPa | 0 mm | - | 33 W/m² | - |
| 1778107647 | 10.56° C | 45% | 1012.7 hPa | 0 mm | - | 42 W/m² | - |
| 1778107344 | 10.56° C | 43% | 1012.7 hPa | 0 mm | - | 45 W/m² | - |
| 1778107041 | 11.11° C | 44% | 1012.8 hPa | 0 mm | - | 53 W/m² | - |
| 1778106736 | 11.11° C | 44% | 1012.8 hPa | 0 mm | - | 70 W/m² | - |
| 1778106433 | 11.11° C | 42% | 1012.8 hPa | 0 mm | - | 97 W/m² | - |
| 1778106129 | 11.11° C | 43% | 1012.9 hPa | 0 mm | - | 117 W/m² | - |
* Rain latest hour (hover to see other rain measurements)
** Current wind speed in m/s (hover to see current wind gust speed)